Date String (YYYY-MM-DD hh:mm:ss) UTC,Instrument flags,Ambient pressure (hPa),Sample flow (lpm),Bypass flow (lpm),Sample temperature (°C),Ambient temperature (°C),ASC tube jacket temperature (°C),LED temperature (°C),Box temperature (°C),Sample RH (%),Span deviation,Mass concentration (μg/m³),Mass concentration (μg/m³),Mass concentration (μg/m³)
DateTimeUTC,F1_M11,P_M11,Q1_M11,Q2_M11,T1_M11,T2_M11,T3_M11,T4_M11,T5_M11,U1_M11,ZSPAN_M11,X2_M11,X0_M11,X1_M11
2021-12-11 01:00:00,,0820.9,5.00,0.00,22.3,22.4,00.0,31.3,24.1,06.2,0000.0,0001.81,0003.65,0001.32
2021-12-11 01:01:00,,0820.9,5.00,0.00,22.3,22.1,00.0,31.3,23.9,06.2,0000.0,0001.87,0004.59,0001.31
2021-12-11 01:02:00,,0821.0,5.00,0.00,22.2,21.8,00.0,31.3,23.8,06.2,0000.0,0001.93,0004.74,0001.33
2021-12-11 01:03:00,,0821.0,4.99,0.00,22.2,21.6,00.0,31.3,23.7,06.2,0000.0,0001.96,0004.87,0001.32
2021-12-11 01:04:00,,0821.0,5.01,0.00,22.1,21.4,00.0,31.3,23.6,06.2,0000.0,0001.92,0004.73,0001.33
2021-12-11 01:05:00,,0821.0,5.00,0.00,22.1,21.3,00.0,31.2,23.5,06.3,0000.0,0001.96,0004.92,0001.33
2021-12-11 01:06:00,,0821.0,5.00,0.00,22.1,21.2,00.0,31.2,23.5,06.2,0000.0,0001.96,0004.90,0001.33
2021-12-11 01:07:00,,0821.1,5.00,0.00,22.0,21.1,00.0,31.2,23.4,06.2,0000.0,0002.00,0004.89,0001.33
2021-12-11 01:08:00,,0821.1,5.00,0.00,22.0,20.9,00.0,31.2,23.3,06.2,0000.0,0002.01,0004.91,0001.35
2021-12-11 01:09:00,,0821.2,5.00,0.00,21.9,21.0,00.0,31.2,23.4,06.3,0000.0,0002.01,0005.20,0001.35
2021-12-11 01:10:00,,0821.1,5.00,0.00,22.0,21.7,00.0,31.2,23.7,06.2,0000.0,0002.03,0005.35,0001.36
2021-12-11 01:11:00,,0821.2,5.00,0.00,22.2,22.6,00.0,31.2,24.1,06.2,0000.0,0002.02,0005.07,0001.36
2021-12-11 01:12:00,,0821.1,5.01,0.00,22.3,23.2,00.0,31.3,24.3,06.2,0000.0,0001.99,0004.02,0001.36
2021-12-11 01:13:00,,0821.1,5.00,0.00,22.4,23.0,00.0,31.3,24.3,06.2,0000.0,0001.92,0003.85,0001.34
2021-12-11 01:14:00,,0821.1,5.00,0.00,22.4,22.7,00.0,31.3,24.2,06.1,0000.0,0001.90,0003.77,0001.34
2021-12-11 01:15:00,,0821.1,4.99,0.00,22.3,22.3,00.0,31.3,24.0,06.0,0000.0,0001.92,0003.77,0001.34
2021-12-11 01:16:00,,0821.1,5.00,0.00,22.3,22.0,00.0,31.3,23.9,06.0,0000.0,0001.92,0003.58,0001.35
2021-12-11 01:17:00,,0821.1,5.00,0.00,22.2,21.8,00.0,31.3,23.8,06.0,0000.0,0001.92,0003.60,0001.35
2021-12-11 01:18:00,,0821.2,5.00,0.00,22.2,21.5,00.0,31.3,23.7,06.0,0000.0,0001.95,0003.75,0001.35
2021-12-11 01:19:00,,0821.1,5.00,0.00,22.1,21.4,00.0,31.3,23.5,06.0,0000.0,0001.99,0003.91,0001.35
2021-12-11 01:20:00,,0821.1,5.00,0.00,22.1,21.2,00.0,31.2,23.4,05.9,0000.0,0001.99,0003.83,0001.36
2021-12-11 01:21:00,,0821.1,5.01,0.00,22.0,21.0,00.0,31.2,23.4,05.9,0000.0,0001.97,0003.71,0001.37
2021-12-11 01:22:00,,0821.1,5.00,0.00,22.0,21.0,00.0,31.2,23.4,06.0,0000.0,0001.99,0003.93,0001.38
2021-12-11 01:23:00,,0821.2,4.99,0.00,21.9,20.9,00.0,31.2,23.3,06.0,0000.0,0002.00,0004.13,0001.40
2021-12-11 01:24:00,,0821.3,5.00,0.00,22.0,21.3,00.0,31.2,23.5,05.9,0000.0,0002.04,0004.67,0001.41
2021-12-11 01:25:00,,0821.3,5.00,0.00,22.1,22.1,00.0,31.2,23.9,05.9,0000.0,0002.06,0004.69,0001.43
2021-12-11 01:26:00,,0821.4,5.00,0.00,22.2,22.9,00.0,31.2,24.2,05.9,0000.0,0002.08,0004.68,0001.45
2021-12-11 01:27:00,,0821.4,4.99,0.00,22.4,23.0,00.0,31.3,24.3,05.9,0000.0,0002.07,0004.63,0001.46
2021-12-11 01:28:00,,0821.4,4.99,0.00,22.4,22.6,00.0,31.3,24.2,05.9,0000.0,0002.12,0004.67,0001.49
2021-12-11 01:29:00,,0821.4,5.01,0.00,22.3,22.3,00.0,31.3,24.0,05.9,0000.0,0002.03,0004.41,0001.50
2021-12-11 01:30:00,,0821.4,4.99,0.00,22.3,21.9,00.0,31.3,23.9,06.0,0000.0,0002.02,0004.38,0001.51
2021-12-11 01:31:00,,0821.4,5.01,0.00,22.2,21.6,00.0,31.3,23.7,06.0,0000.0,0002.00,0004.15,0001.52
2021-12-11 01:32:00,,0821.5,4.99,0.00,22.1,21.4,00.0,31.2,23.6,06.0,0000.0,0002.01,0005.06,0001.53
2021-12-11 01:33:00,,0821.5,5.00,0.00,22.1,21.2,00.0,31.2,23.5,06.1,0000.0,0002.02,0005.25,0001.53
2021-12-11 01:34:00,,0821.4,5.01,0.00,22.0,21.0,00.0,31.2,23.4,06.0,0000.0,0002.02,0005.04,0001.53
2021-12-11 01:35:00,,0821.4,4.99,0.00,22.0,20.9,00.0,31.2,23.4,06.0,0000.0,0002.01,0004.58,0001.55
2021-12-11 01:36:00,,0821.4,5.01,0.00,21.9,20.9,00.0,31.2,23.4,06.0,0000.0,0001.98,0004.51,0001.54
2021-12-11 01:37:00,,0821.5,4.99,0.00,22.0,21.6,00.0,31.2,23.6,05.9,0000.0,0001.96,0004.48,0001.53
2021-12-11 01:38:00,,0821.5,5.00,0.00,22.1,22.4,00.0,31.2,23.9,06.0,0000.0,0001.94,0004.43,0001.52
2021-12-11 01:39:00,,0821.6,5.00,0.00,22.3,23.1,00.0,31.3,24.2,06.0,0000.0,0001.89,0004.61,0001.50
2021-12-11 01:40:00,,0821.5,4.99,0.00,22.4,23.0,00.0,31.3,24.3,05.9,0000.0,0001.90,0005.40,0001.50
2021-12-11 01:41:00,,0821.5,5.00,0.00,22.4,22.6,00.0,31.3,24.1,05.9,0000.0,0001.88,0005.37,0001.50
2021-12-11 01:42:00,,0821.5,4.98,0.00,22.3,22.3,00.0,31.3,24.0,05.8,0000.0,0001.88,0005.46,0001.49
2021-12-11 01:43:00,,0821.5,5.01,0.00,22.2,22.0,00.0,31.3,23.8,05.7,0000.0,0001.91,0004.84,0001.48
2021-12-11 01:44:00,,0821.4,4.99,0.00,22.2,21.8,00.0,31.3,23.6,05.5,0000.0,0001.86,0003.92,0001.49
2021-12-11 01:45:00,,0821.5,5.02,0.00,22.1,21.5,00.0,31.2,23.5,05.5,0000.0,0001.87,0003.91,0001.49
2021-12-11 01:46:00,,0821.5,5.00,0.00,22.0,21.3,00.0,31.2,23.5,05.6,0000.0,0001.87,0003.88,0001.50
2021-12-11 01:47:00,,0821.5,5.00,0.00,22.0,21.2,00.0,31.2,23.3,05.6,0000.0,0001.89,0003.94,0001.49
2021-12-11 01:48:00,,0821.4,5.01,0.00,21.9,21.0,00.0,31.2,23.2,05.5,0000.0,0001.87,0003.90,0001.48
2021-12-11 01:49:00,,0821.4,4.99,0.00,21.9,21.0,00.0,31.1,23.3,05.5,0000.0,0001.86,0003.89,0001.48
2021-12-11 01:50:00,,0821.5,5.00,0.00,22.0,21.7,00.0,31.2,23.6,05.6,0000.0,0001.91,0003.83,0001.49
2021-12-11 01:51:00,,0821.6,5.00,0.00,22.1,22.5,00.0,31.2,24.0,05.6,0000.0,0001.93,0003.66,0001.49
2021-12-11 01:52:00,,0821.5,5.01,0.00,22.3,23.2,00.0,31.2,24.3,05.5,0000.0,0001.92,0004.01,0001.48
2021-12-11 01:53:00,,0821.6,4.99,0.00,22.4,23.3,00.0,31.3,24.4,05.2,0000.0,0001.90,0004.19,0001.48
2021-12-11 01:54:00,,0821.6,5.02,0.00,22.4,22.8,00.0,31.3,24.2,05.4,0000.0,0001.83,0004.35,0001.46
2021-12-11 01:55:00,,0821.5,5.00,0.00,22.3,22.4,00.0,31.3,24.0,05.4,0000.0,0001.80,0005.13,0001.44
2021-12-11 01:56:00,,0821.4,5.00,0.00,22.3,22.1,00.0,31.3,23.9,05.3,0000.0,0001.77,0005.69,0001.41
2021-12-11 01:57:00,,0821.6,4.99,0.00,22.2,21.8,00.0,31.3,23.7,05.3,0000.0,0001.78,0006.51,0001.38
2021-12-11 01:58:00,,0821.6,5.01,0.00,22.1,21.5,00.0,31.2,23.6,05.3,0000.0,0001.81,0006.63,0001.37
2021-12-11 01:59:00,,0821.7,5.00,0.00,22.0,21.3,00.0,31.2,23.4,05.4,0000.0,0001.87,0006.88,0001.38
